Location: Madrid
(40.4000°N, 3.6830°W)
Time: 15:32:54
(UTC+02:00)

ISS - Pass Details

Date: 19 September 2019
Orbit: 411 x 421 km, 51.6° (Epoch: 18 September)

Event Time Altitude Azimuth Distance (km) Brightness Sun altitude
Rises 22:07:13 0° 239° (WSW) 2,333 0.6 -21.2°
Reaches altitude 10° 22:09:19 10° 243° (WSW) 1,474 -0.5 -21.6°
Enters shadow 22:12:12 57° 286° (WNW) 489 -3.2 -22.1°
